| time (UTC) | temp F | wind direction | speed MPH | gust MPH | rain 1hr in | rain 24hr in | rain mn in | humidity % | barometer mb |
| 20260505065004 | 52 | 341 | 5.0 | 9.0 | 0.00 | 0.00 | 0.00 | 92 | 1012.8 |
| 20260505064504 | 52 | 7 | 3.0 | 6.0 | 0.00 | 0.00 | 0.00 | 92 | 1012.7 |
| 20260505064003 | 52 | 4 | 3.0 | 7.0 | 0.00 | 0.00 | 0.00 | 92 | 1012.7 |
| 20260505063504 | 52 | 1 | 3.0 | 6.0 | 0.00 | 0.00 | 0.00 | 92 | 1012.6 |
| 20260505063004 | 52 | 21 | 3.0 | 5.0 | 0.00 | 0.00 | 0.00 | 92 | 1012.5 |
| 20260505062503 | 52 | 348 | 3.0 | 5.0 | 0.00 | 0.00 | 0.00 | 92 | 1012.4 |
| 20260505062003 | 53 | 356 | 3.0 | 9.0 | 0.00 | 0.00 | 0.00 | 92 | 1012.4 |
| 20260505061504 | 53 | 359 | 3.0 | 8.0 | 0.00 | 0.00 | 0.00 | 92 | 1012.3 |
| 20260505061004 | 53 | 4 | 3.0 | 6.0 | 0.00 | 0.00 | 0.00 | 92 | 1012.3 |
| 20260505060504 | 53 | 343 | 3.0 | 6.0 | 0.00 | 0.00 | 0.00 | 92 | 1012.3 |
| 20260505060004 | 52 | 359 | 3.0 | 6.0 | 0.00 | 0.00 | 0.00 | 92 | 1012.2 |
| 20260505055504 | 52 | 2 | 5.0 | 9.0 | 0.00 | 0.00 | 0.00 | 92 | 1012.2 |
| 20260505055004 | 52 | 13 | 3.0 | 3.0 | 0.00 | 0.00 | 0.00 | 92 | 1012.3 |
| 20260505054504 | 52 | 0 | 2.0 | 5.0 | 0.00 | 0.00 | 0.00 | 92 | 1012.2 |
| 20260505053503 | 52 | 351 | 4.0 | 6.0 | 0.00 | 0.00 | 0.00 | 92 | 1012.1 |
| 20260505053004 | 52 | 3 | 3.0 | 6.0 | 0.00 | 0.00 | 0.00 | 92 | 1012.1 |
| 20260505052504 | 52 | 356 | 3.0 | 5.0 | 0.00 | 0.00 | 0.00 | 91 | 1012.0 |
| 20260505052003 | 53 | 26 | 3.0 | 7.0 | 0.00 | 0.00 | 0.00 | 91 | 1011.9 |
| 20260505051504 | 53 | 11 | 3.0 | 7.0 | 0.00 | 0.00 | 0.00 | 91 | 1011.9 |
| 20260505051004 | 53 | 19 | 3.0 | 7.0 | 0.00 | 0.00 | 0.00 | 91 | 1011.9 |
| 20260505050503 | 53 | 13 | 3.0 | 7.0 | 0.00 | 0.00 | 0.00 | 90 | 1011.9 |
| 20260505041504 | 55 | 36 | 3.0 | 7.0 | 0.00 | 0.00 | 0.00 | 88 | 1011.8 |
| 20260505041004 | 55 | 30 | 3.0 | 6.0 | 0.00 | 0.00 | 0.00 | 88 | 1011.7 |
| 20260505040504 | 55 | 33 | 3.0 | 6.0 | 0.00 | 0.00 | 0.00 | 87 | 1011.6 |
| 20260505040004 | 56 | 14 | 3.0 | 6.0 | 0.00 | 0.00 | 0.00 | 87 | 1011.6 |
| 20260505035503 | 56 | 13 | 3.0 | 6.0 | 0.00 | 0.00 | 0.00 | 86 | 1011.6 |
| 20260505035004 | 56 | 20 | 5.0 | 9.0 | 0.00 | 0.00 | 0.00 | 86 | 1011.6 |
| 20260505034504 | 56 | 13 | 3.0 | 5.0 | 0.00 | 0.00 | 0.00 | 85 | 1011.5 |
| 20260505033504 | 57 | 20 | 3.0 | 6.0 | 0.00 | 0.00 | 0.00 | 84 | 1011.3 |
| 20260505033004 | 57 | 23 | 3.0 | 6.0 | 0.00 | 0.00 | 0.00 | 83 | 1011.2 |
| 20260505032504 | 58 | 18 | 3.0 | 5.0 | 0.00 | 0.00 | 0.00 | 82 | 1011.2 |
| 20260505031503 | 59 | 6 | 3.0 | 5.0 | 0.00 | 0.00 | 0.00 | 81 | 1011.1 |
| 20260505031004 | 59 | 12 | 3.0 | 7.0 | 0.00 | 0.00 | 0.00 | 80 | 1011.1 |
| 20260505030503 | 60 | 357 | 4.0 | 8.0 | 0.00 | 0.00 | 0.00 | 79 | 1011.1 |
| 20260505030004 | 60 | 358 | 3.0 | 8.0 | 0.00 | 0.00 | 0.00 | 78 | 1011.0 |
| 20260505025504 | 61 | 20 | 3.0 | 5.0 | 0.00 | 0.00 | 0.00 | 77 | 1011.0 |
| 20260505024504 | 61 | 10 | 2.0 | 3.0 | 0.00 | 0.00 | 0.00 | 76 | 1010.9 |
| 20260505023004 | 62 | 341 | 2.0 | 5.0 | 0.00 | 0.00 | 0.00 | 73 | 1010.8 |
| 20260505022004 | 63 | 34 | 2.0 | 3.0 | 0.00 | 0.00 | 0.00 | 71 | 1010.8 |
| 20260505021504 | 64 | 28 | 2.0 | 6.0 | 0.00 | 0.00 | 0.00 | 71 | 1010.7 |
| 20260505020504 | 64 | 33 | 3.0 | 9.0 | 0.00 | 0.00 | 0.00 | 70 | 1010.6 |
| 20260505020004 | 65 | 26 | 3.0 | 5.0 | 0.00 | 0.00 | 0.00 | 69 | 1010.5 |
| 20260505015503 | 65 | 14 | 3.0 | 7.0 | 0.00 | 0.00 | 0.00 | 68 | 1010.5 |
| 20260505014003 | 67 | 35 | 3.0 | 9.0 | 0.00 | 0.00 | 0.00 | 67 | 1010.6 |
| 20260505013503 | 67 | 23 | 2.0 | 5.0 | 0.00 | 0.00 | 0.00 | 66 | 1010.6 |
| 20260505012504 | 68 | 16 | 4.0 | 8.0 | 0.00 | 0.00 | 0.00 | 64 | 1010.4 |
| 20260505012004 | 69 | 24 | 3.0 | 5.0 | 0.00 | 0.00 | 0.00 | 62 | 1010.5 |
| 20260505011503 | 70 | 23 | 2.0 | 3.0 | 0.00 | 0.00 | 0.00 | 61 | 1010.5 |
| 20260505011004 | 70 | 13 | 2.0 | 6.0 | 0.00 | 0.00 | 0.00 | 61 | 1010.6 |
| 20260505010503 | 71 | 32 | 2.0 | 5.0 | 0.00 | 0.00 | 0.00 | 60 | 1010.6 |
| 20260505005504 | 71 | 15 | 2.0 | 8.0 | 0.00 | 0.00 | 0.00 | 59 | 1010.5 |
| 20260505005004 | 72 | 10 | 2.0 | 5.0 | 0.00 | 0.00 | 0.00 | 57 | 1010.5 |
| 20260505004504 | 72 | 54 | 2.0 | 6.0 | 0.00 | 0.00 | 0.00 | 58 | 1010.5 |
| 20260505004003 | 72 | 358 | 2.0 | 9.0 | 0.00 | 0.00 | 0.00 | 59 | 1010.5 |
| 20260505003004 | 73 | 11 | 2.0 | 10.0 | 0.00 | 0.00 | 0.00 | 56 | 1010.5 |
| 20260505002504 | 73 | 342 | 3.0 | 10.0 | 0.00 | 0.00 | 0.00 | 57 | 1010.6 |
| 20260505001003 | 73 | 343 | 3.0 | 8.0 | 0.00 | 0.00 | 0.00 | 59 | 1010.6 |
| 20260505000004 | 72 | 323 | 3.0 | 6.0 | 0.00 | 0.00 | 0.00 | 63 | 1010.6 |
| 20260504235504 | 72 | 26 | 2.0 | 3.0 | 0.00 | 0.00 | 0.00 | 64 | 1010.5 |
| 20260504235004 | 71 | 8 | 1.0 | 3.0 | 0.00 | 0.00 | 0.00 | 66 | 1010.6 |
| 20260504234504 | 71 | 188 | 2.0 | 3.0 | 0.00 | 0.00 | 0.00 | 67 | 1010.6 |
| 20260504234004 | 71 | 216 | 1.0 | 3.0 | 0.00 | 0.00 | 0.00 | 66 | 1010.6 |
| 20260504233504 | 71 | 332 | 1.0 | 3.0 | 0.00 | 0.00 | 0.00 | 67 | 1010.5 |
| 20260504232504 | 71 | 190 | 2.0 | 5.0 | 0.00 | 0.00 | 0.00 | 66 | 1010.6 |
| 20260504232004 | 71 | 34 | 2.0 | 3.0 | 0.00 | 0.00 | 0.00 | 67 | 1010.6 |
| 20260504231503 | 71 | 225 | 3.0 | 3.0 | 0.00 | 0.00 | 0.00 | 65 | 1010.6 |
| 20260504231004 | 71 | 39 | 2.0 | 3.0 | 0.00 | 0.00 | 0.00 | 65 | 1010.6 |
| 20260504230503 | 71 | 147 | 2.0 | 5.0 | 0.00 | 0.00 | 0.00 | 66 | 1010.6 |
| 20260504230004 | 71 | 170 | 3.0 | 5.0 | 0.00 | 0.00 | 0.00 | 66 | 1010.7 |
| 20260504225504 | 71 | 195 | 2.0 | 3.0 | 0.00 | 0.00 | 0.00 | 68 | 1010.8 |
| 20260504224503 | 71 | 217 | 2.0 | 3.0 | 0.00 | 0.00 | 0.00 | 67 | 1010.9 |
| 20260504224004 | 71 | 220 | 3.0 | 3.0 | 0.00 | 0.00 | 0.00 | 67 | 1011.0 |
| 20260504222504 | 72 | 24 | 2.0 | 3.0 | 0.00 | 0.00 | 0.00 | 64 | 1011.1 |
| 20260504222003 | 72 | 225 | 3.0 | 3.0 | 0.00 | 0.00 | 0.00 | 65 | 1011.2 |
| 20260504221004 | 73 | 178 | 3.0 | 5.0 | 0.00 | 0.00 | 0.00 | 65 | 1011.3 |
| 20260504220504 | 73 | 105 | 1.0 | 5.0 | 0.00 | 0.00 | 0.00 | 63 | 1011.4 |
| 20260504220004 | 73 | 226 | 3.0 | 5.0 | 0.00 | 0.00 | 0.00 | 66 | 1011.4 |
| 20260504215503 | 73 | 226 | 1.0 | 5.0 | 0.00 | 0.00 | 0.00 | 65 | 1011.4 |
| 20260504215003 | 72 | 317 | 2.0 | 5.0 | 0.00 | 0.00 | 0.00 | 64 | 1011.4 |
| 20260504214504 | 72 | 184 | 2.0 | 5.0 | 0.00 | 0.00 | 0.00 | 68 | 1011.5 |
| 20260504213504 | 72 | 329 | 2.0 | 5.0 | 0.00 | 0.00 | 0.00 | 62 | 1011.6 |
| 20260504213004 | 72 | 259 | 1.0 | 5.0 | 0.00 | 0.00 | 0.00 | 66 | 1011.6 |
| 20260504212503 | 72 | 209 | 3.0 | 6.0 | 0.00 | 0.00 | 0.00 | 63 | 1011.6 |
| 20260504212004 | 72 | 205 | 3.0 | 6.0 | 0.00 | 0.00 | 0.00 | 65 | 1011.6 |
| 20260504211504 | 72 | 210 | 5.0 | 7.0 | 0.00 | 0.00 | 0.00 | 64 | 1011.7 |
| 20260504211004 | 72 | 211 | 2.0 | 6.0 | 0.00 | 0.00 | 0.00 | 64 | 1011.7 |
| 20260504210504 | 72 | 179 | 2.0 | 3.0 | 0.00 | 0.00 | 0.00 | 67 | 1011.8 |
| 20260504205503 | 71 | 202 | 2.0 | 3.0 | 0.00 | 0.00 | 0.00 | 63 | 1011.9 |
| 20260504205004 | 71 | 204 | 4.0 | 6.0 | 0.00 | 0.00 | 0.00 | 65 | 1012.0 |
| 20260504204504 | 71 | 81 | 1.0 | 5.0 | 0.00 | 0.00 | 0.00 | 65 | 1012.1 |
| 20260504204004 | 71 | 227 | 2.0 | 3.0 | 0.00 | 0.00 | 0.00 | 68 | 1012.1 |
| 20260504203504 | 70 | 210 | 2.0 | 3.0 | 0.00 | 0.00 | 0.00 | 69 | 1012.1 |
| 20260504202504 | 70 | 189 | 3.0 | 5.0 | 0.00 | 0.00 | 0.00 | 66 | 1012.3 |
| 20260504202004 | 70 | 211 | 3.0 | 8.0 | 0.00 | 0.00 | 0.00 | 66 | 1012.3 |
| 20260504201504 | 70 | 319 | 1.0 | 3.0 | 0.00 | 0.00 | 0.00 | 67 | 1012.3 |
| 20260504200503 | 70 | 235 | 2.0 | 6.0 | 0.00 | 0.00 | 0.00 | 68 | 1012.4 |
| 20260504195504 | 69 | 172 | 3.0 | 5.0 | 0.00 | 0.00 | 0.00 | 68 | 1012.5 |
| 20260504193504 | 68 | 237 | 3.0 | 6.0 | 0.00 | 0.00 | 0.00 | 69 | 1012.5 |
| 20260504193003 | 68 | 275 | 2.0 | 7.0 | 0.00 | 0.00 | 0.00 | 70 | 1012.6 |
| 20260504192003 | 68 | 236 | 2.0 | 5.0 | 0.00 | 0.00 | 0.00 | 73 | 1012.6 |
| 20260504191504 | 67 | 205 | 3.0 | 5.0 | 0.00 | 0.00 | 0.00 | 68 | 1012.6 |
| 20260504191004 | 67 | 203 | 2.0 | 8.0 | 0.00 | 0.00 | 0.00 | 72 | 1012.7 |
| 20260504190504 | 67 | 204 | 2.0 | 5.0 | 0.00 | 0.00 | 0.00 | 72 | 1012.8 |
| 20260504190004 | 67 | 200 | 2.0 | 3.0 | 0.00 | 0.00 | 0.00 | 72 | 1012.9 |
| 20260504185504 | 67 | 213 | 3.0 | 7.0 | 0.00 | 0.00 | 0.00 | 74 | 1012.8 |
| 20260504185004 | 66 | 206 | 2.0 | 8.0 | 0.00 | 0.00 | 0.00 | 73 | 1012.8 |
| 20260504184503 | 66 | 168 | 4.0 | 7.0 | 0.00 | 0.00 | 0.00 | 69 | 1012.8 |
| 20260504184003 | 66 | 136 | 3.0 | 5.0 | 0.00 | 0.00 | 0.00 | 73 | 1012.9 |
| 20260504183504 | 66 | 222 | 3.0 | 7.0 | 0.00 | 0.00 | 0.00 | 73 | 1012.8 |
| 20260504183004 | 66 | 215 | 2.0 | 5.0 | 0.00 | 0.00 | 0.00 | 73 | 1012.8 |
| 20260504182504 | 66 | 233 | 2.0 | 5.0 | 0.00 | 0.00 | 0.00 | 73 | 1012.7 |
| 20260504182003 | 66 | 234 | 2.0 | 3.0 | 0.00 | 0.00 | 0.00 | 74 | 1012.8 |
| 20260504181504 | 65 | 235 | 2.0 | 5.0 | 0.00 | 0.00 | 0.00 | 75 | 1012.8 |
| 20260504181004 | 65 | 207 | 2.0 | 5.0 | 0.00 | 0.00 | 0.00 | 75 | 1012.8 |
| 20260504180504 | 65 | 224 | 2.0 | 3.0 | 0.00 | 0.00 | 0.00 | 77 | 1012.9 |
| 20260504180003 | 64 | 185 | 2.0 | 7.0 | 0.00 | 0.00 | 0.00 | 74 | 1012.8 |
| 20260504175504 | 64 | 193 | 4.0 | 6.0 | 0.00 | 0.00 | 0.00 | 75 | 1012.8 |
| 20260504175004 | 64 | 217 | 3.0 | 5.0 | 0.00 | 0.00 | 0.00 | 75 | 1012.8 |
| 20260504174003 | 63 | 201 | 2.0 | 5.0 | 0.00 | 0.00 | 0.00 | 78 | 1012.8 |
| 20260504173504 | 63 | 227 | 3.0 | 5.0 | 0.00 | 0.00 | 0.00 | 79 | 1012.8 |
| 20260504173003 | 63 | 234 | 2.0 | 3.0 | 0.00 | 0.00 | 0.00 | 79 | 1012.8 |
| 20260504172004 | 61 | 211 | 2.0 | 3.0 | 0.00 | 0.00 | 0.00 | 80 | 1012.8 |
| 20260504171503 | 61 | 260 | 3.0 | 7.0 | 0.00 | 0.00 | 0.00 | 82 | 1012.8 |
| 20260504171004 | 60 | 195 | 3.0 | 3.0 | 0.00 | 0.00 | 0.00 | 81 | 1012.8 |
| 20260504170503 | 60 | 221 | 2.0 | 3.0 | 0.00 | 0.00 | 0.00 | 84 | 1012.9 |
| 20260504151004 | 55 | 21 | 1.0 | 2.0 | 0.00 | 0.00 | 0.00 | 86 | 1012.2 |
| 20260504141004 | 55 | 36 | 1.0 | 2.0 | 0.00 | 0.00 | 0.00 | 84 | 1011.6 |
| 20260504140504 | 55 | 44 | 0.0 | 1.0 | 0.00 | 0.00 | 0.00 | 84 | 1011.6 |
| 20260504130504 | 56 | 27 | 3.0 | 3.0 | 0.00 | 0.00 | 0.00 | 78 | 1010.6 |
| 20260504110504 | 59 | 19 | 2.0 | 3.0 | 0.00 | 0.00 | 0.00 | 72 | 1009.1 |
| 20260504100503 | 63 | 340 | 3.0 | 5.0 | 0.00 | 0.00 | 0.00 | 63 | 1009.0 |
| 20260504082003 | 64 | 342 | 1.0 | 3.0 | 0.00 | 0.00 | 0.00 | 62 | 1008.7 |
| 20260504081503 | 65 | 345 | 2.0 | 3.0 | 0.00 | 0.00 | 0.00 | 61 | 1008.7 |
| 20260504081003 | 65 | 351 | 1.0 | 3.0 | 0.00 | 0.00 | 0.00 | 61 | 1008.6 |
| 20260504080504 | 65 | 21 | 1.0 | 3.0 | 0.00 | 0.00 | 0.00 | 61 | 1008.7 |